Location: Bamobli
(6.6379°N, 10.9396°W)
Time: 23:35:52
(UTC+00:00)

N. Korean satellite - Pass Details

Date: 13 March 2021
Orbit: 453 x 499 km, 97.2° (Epoch: 12 April)

Event Time Altitude Azimuth Distance (km) Brightness Sun altitude
Rises 05:46:40 0° 11° (N) 2,566 10.4 -16.9°
Reaches altitude 10° 05:48:44 10° 11° (N) 1,689 9.4 -16.3°
Maximum altitude 05:52:23 89° 98° (E) 502 6.5 -15.4°
Drops below altitude 10° 05:56:03 10° 191° (S) 1,700 9.2 -14.5°
Sets 05:58:08 0° 191° (S) 2,583 10.2 -14.0°
